Regional Weather Roundup
Issued by NWS

Home | Current Version | Previous Version | Text Only | Print | Product List | Glossary Off
Versions: 1 2 3 4 5 6 7 8 9 10 11 12 13 14 15 16 17 18 19 20 21 22 23 24 25 26 27 28 29 30 31 32 33 34 35 36 37 38 39 40 41 42 43 44 45 46 47 48 49 50

000
ASUS43 KFSD 230210
RWRSD

WEATHER ROUNDUP FOR SOUTH DAKOTA
NATIONAL WEATHER SERVICE SIOUX FALLS SD
800 PM CST MON DEC 22 2014

NOTE: "FAIR" INDICATES FEW OR NO CLOUDS BELOW 12,000 FEET WITH NO
SIGNIFICANT WEATHER AND/OR OBSTRUCTIONS TO VISIBILITY.


SDZ001>005-009-010-012>017-230300-
NORTHWEST AND NORTH CENTRAL SOUTH DAKOTA

CITY           SKY/WX    TMP DP  RH WIND       PRES   REMARKS
BUFFALO          N/A     25  20  81 NW30G40   29.66R WCI   8
FAITH            N/A     25  20  81 NW28G36   29.65R WCI   9
MOBRIDGE       LGT SNOW  33  30  88 N21       29.57R FOG     WCI  21
$$

SDZ012>016-024>037-041>051-057-063-072>074-230300-
SOUTHWEST AND SOUTH CENTRAL SOUTH DAKOTA

CITY           SKY/WX    TMP DP  RH WIND       PRES   REMARKS
RAPID CTY ARPT LGT SNOW  30  28  92 N24G38    29.65R VSB 3/4 WCI  16
PIERRE         LGT SNOW  31  28  89 MISG      29.55R FOG
CUSTER         FLURRIES  25  17  72 N16G32    29.58R WCI  12
ELLSWORTH AFB  LGT SNOW  30  28  93 N25G32    29.66  VSB 1   WCI  16
PHILIP         LGT SNOW  28  23  81 NW24G31   29.64R WCI  14
PINE RIDGE     LGT SNOW  31  25  78 NW22G37   29.66R VSB 1   WCI  18
SPEARFISH      MIX PCPN  28  25  86 NW24G35   29.74R WCI  14
WINNER         LGT SNOW  31  27  85 NW24G31   29.54S FOG     WCI  17
$$

SDZ004>011-016>023-039-040-230300-
NORTHEAST SOUTH DAKOTA

CITY           SKY/WX    TMP DP  RH WIND       PRES   REMARKS
ABERDEEN       LGT RAIN  35  33  92 NE10      29.53R WCI  27
WATERTOWN      CLOUDY    36  34  92 E10       29.49R
SISSETON         N/A     33  33 100 E8        29.56  WCI  26
$$

SDZ017-020-022-023-036>040-048>070-230300-
SOUTHEAST SOUTH DAKOTA

CITY           SKY/WX    TMP DP  RH WIND       PRES   REMARKS
SIOUX FALLS    LGT RAIN  36  35  96 NE3       29.46R FOG
HURON          FOG       32  32 100 NW5       29.49R VSB 1   WCI  27
CHAMBERLAIN    CLOUDY    31  29  93 NW20      29.52R WCI  19
MITCHELL         N/A     34  32  92 NW8       29.50R WCI  27
YANKTON        CLOUDY    36  34  93 NW13      29.48R
$$

ABBREVIATIONS USED IN REMARKS
   TC - TEMPERATURE IN CELSIUS
  WCI - WIND CHILL INDEX
   HX - HEAT INDEX
  VSB - VISIBILITY



USA.gov is the U.S. government's official web portal to all federal, state and local government web resources and services.